User: anonymous   Login
Location: Unspecified
(0.0000°N, 0.0000°E)
Time: 09:08:17
(UTC+00:00)
Language:

Kosmos-2184 - Orbit

View from above orbital plane
View from above orbital plane
View from above satellite
View from above satellite

Ground track
Ground track

The orbit data is extracted from the following two-line orbital elements,

1 21937U 92020A   18109.68125874 +.00000034 +00000-0 +19719-4 0  9993
2 21937 082.9327 159.6168 0033981 158.1932 318.3245 13.73150607303278
Epoch (UTC): 19 April 2018 16:21:00
Eccentricity: 0.0033981
inclination: 82.9327°
perigee height: 963 km
apogee height: 1013 km
right ascension of ascending node: 159.6168°
argument of perigee: 158.1932°
revolutions per day: 13.73150607
mean anomaly at epoch: 318.3245°
orbit number at epoch: 30327

The dashed part of the orbit path shows where the satellite is in the earth's shadow,  

DLR